Showing default

YUNYAO-1 18, 58758

Orbit data source: Space-Track

YUNYAO-1 18, 58758 is a payload satellite owned by Yunyao yuhang (CN) in LEO that was launched on Thu, 11 Jan 2024 UTC via a YINLI-1 launch vehicle from the Yellow Sea Launch Area, China (YSLA). Payload-class satellites include a variety of spacecraft equipped with specific instruments for various scientific and technological missions. These include communications satellites like Starlink; space stations such as the ISS; scientific satellites like the Hubble; Earth observation satellites from companies like Planet Labs, Umbra, and HawkEye 360; GPS; miniature CubeSats for education and research; and military/defense satellites.

Loading next visibility...
Identifier
58758, 2024-009A
Orbit
LEO
Country
Flag of CNCN / PRC
Related business
Manufacturer
Changguang WJ
Mission
Operational Commercial Meteo Radio Occ.
Bus & Motor
YY-1, Unknown motor
Mass
~500 kg wet, ~500 kg dry
Launch date (UTC)
2024-01-11 (2 years ago)
Launch vehicle
YINLI-1
Launch site
Yellow Sea Launch Area, China (YSLA)
Object type
Payload
Rocket body
Debris
Shape & HBR
Box + 1 Pan, 2.5 m
Radar Cross Section
5.339 m², Medium (>0.1 m² and < 1m²)

Expand to show TLE details & history
Last TLE update: 1 day ago

TLE from 1 day ago
0 YUNYAO-1 18
1 58758U 24009A   26172.43442443  .00008962  00000-0  38384-3 0  9998
2 58758  50.0031 133.3141 0005059 309.9236  50.1273 15.23439274135491
Epoch: 2026-06-21T10:25Z
TLE epoch observation values (Epoch: 2026-06-21T10:25:34.270Z)
Latitude
-0.00012°
Longitude
67.28646°
Altitude
493.802 km
Speed
7.621 km/s
True Right ascension
08h 53m 15s
True Declination
0° 00' 00"
Sunlit
Object was in daylight at epoch
Visualization orbit readout
Latitude
Unknown
Longitude
Unknown
Altitude
Unknown
Speed
Unknown
Apparent Right ascension
Unknown
Apparent Declination
Unknown
Sunlit
N/A
Visualization observer readout
Local Sidereal Time
21:39:28
Azimuth
Unknown
Elevation
Unknown
Doppler factor
Unknown
Orbital elements
Apogee altitude
499.725 km
Perigee altitude
492.769 km
Semi-major axis
6,874.384 km
Eccentricity
0.00051
Inclination
50.0031°
RAAN
133.3141°
Arg. of periapsis
309.9236°
True anomaly
50.17181°
Mean anomaly
50.1273°
Eccentric anomaly
50.14955°
Mean motion
3.80796 °/min
Orbital period
94.54 mins
BSTAR
0.00038384
Loading maneuver chart data...
Computing Atmospheric mass density...
Loading historical data...
Loading historical data...
Loading historical data...
Loading historical data...
Loading historical data...
Loading historical data...
Loading historical data...
Other satellites on launch #9 in the year 2024 (2024-01-11 UTC)

Documentation

Showing up to 5 results
|